SCP
0 0 0 0 0 0 0 0 0 0 0 0 0 0 0 0 0 0 0 0 0 0 0 0 0 0 0 0 0 0 -0 0 0 0 0 0 0 0 0 0 0 0 0
0 0 0 0 0 0 0 0 0 0 0 0 0 0 0 0 0 0 0 0 0 0 0 0 0 0 0 -0 -0 -0 0 0 0 0 0 0 0 0 0 0 0 0 0
-0 0 0 0 0 0 0 0 0 0 0 0 0 0 0 0 0 0 0 0 0 0 0 0 0 0 0 -0 -0 0 0 0 0 0 0 0 0 0 0 0 0 0 0
0 0 0 0 0 0 0 0 0 0 0 0 0 0 0 0 0 0 0 0 0 0 0 0 0 0 0 -0 -0 0 0 0 0 0 0 0 0 0 0 0 0 0 0
-0 0 0 0 0 0 0 0 0 0 0 0 0 0 0 0 0 0 0 0 0 0 0 0 0 0 0 0 0 0 0 0 0 0 0 0 0 0 0 0 0 0 0
-0 0 0 0 0 0 0 0 0 0 0 0 0 0 0 0 0 0 0 0 0 -0 -0 0 -0 0 0 0 0 0 0 0 0 0 0 0 0 0 0 0 0 0 0
0 0 0 0 0 0 0 0 0 0 0 0 0 0 0 0 0 0 0 0 0 -0 -0 0 -0 0 0 0 0 0 -0 0 0 0 0 0 0 0 0 0 0 0 0
-0 0 0 0 0 0 0 0 0 0 0 0 0 0 0 0 0 0 -0 -0 -0 -0 0 0 0 0 0 -0 0 0 0 -0 0 0 0 0 0 0 0 0 0 0 0
-0 0 0 0 0 0 0 0 0 0 0 0 0 0 0 0 0 0 -0 -0 -0 -0 0 -0 0 0 0 0 0 0 0 -0 0 0 0 0 0 0 0 0 0 0 0
-0 0 0 0 0 0 0 0 0 0 0 0 0 0 0 0 0 0 -0 -0 -0 -0 0 -0 0 0 0 0 0 0 0 0 0 0 0 0 0 0 0 0 0 0 0
-0 -0 -0 -0 0 0 0 0 0 0 0 0 0 0 0 0 0 0 0 -0 -0 0 0 -0 -0 0 0 0 0 0 0 0 0 0 0 0 0 0 0 0 0 0 0
-0 -0 -0 -0 0 0 0 0 0 0 0 0 0 0 0 0 0 0 -0 -0 0 0 0 -0 -0 -0 0 0 0 0 0 0 0 0 0 0 0 0 0 0 0 0 0
-0 -0 -0 -0 -0 0 0 0 0 0 0 0 0 0 0 0 0 0 0 -0 0 -0 0 0 0 0 0 0 0 0 0 0 0 0 0 0 0 0 0 0 0 0 0
-0 -0 -0 -0 -0 0 -0 0 0 0 0 0 0 0 0 0 0 0 -0 -0 -0 -0 -0 -0 0 0 0 0 0 0 0 0 0 0 0 0 0 0 0 0 0 0 0
-0 -0 -0 -0 -0 0 0 -0 0 0 0 0 0 0 0 0 0 0 0 0 -0 -0 -0 -0 0 0 0 0 0 0 0 0 0 0 0 0 0 0 0 0 0 0 0
-0 -0 -0 -0 -0 -0 -0 -0 0 0 0 0 0 0 0 0 0 0 0 0 0 0 0 -0 -0 0 0 -0 -0 0 0 0 0 0 0 0 -0 0 0 -0 -0 0 0
-0 -0 -0 -0 -0 -0 -0 -0 -0 0 0 0 0 0 0 0 0 0 0 0 0 0 0 0 0 0 0 0 0 0 0 0 0 0 0 0 0 0 0 -0 0 0 0
-0 -0 -0 -0 -0 -0 -0 0 -0 -0 -0 -0 0 0 0 0 0 0 0 0 0 0 0 0 0 0 0 0 0 0 0 0 0 0 0 0 0 0 0 0 0 0 0
-0 -0 -0 -0 -0 -0 -0 -0 -0 -0 -0 -0 -0 0 0 0 0 0 0 0 0 0 0 0 0 0 -0 0 0 0 0 0 0 -0 -0 0 0 0 0 0 0 0 0
0 -0 -0 -0 -0 -0 -0 -0 -0 -0 -0 -0 -0 -0 0 0 0 0 0 0 0 0 -0 0 0 0 0 -0 -0 -0 0 0 -0 0 0 0 0 0 0 0 0 0 0
0 -0 -0 -0 -0 -0 -0 -0 -0 -0 -0 -0 -0 -0 -0 0 0 0 0 0 0 0 0 0 0 0 0 0 0 0 0 0 -0 0 0 0 0 0 0 0 0 0 0
0 -0 -0 -0 -0 -0 -0 -0 -0 -0 -0 -0 -0 -0 -0 -0 -0 -0 0 0 0 0 0 0 0 0 0 0 0 0 -0 -0 0 -0 -0 -0 0 0 0 0 0 0 0
0 -0 -0 -0 -0 -0 -0 -0 -0 -0 -0 -0 -0 -0 -0 -0 -0 -0 -0 0 0 0 0 0 0 0 0 0 -0 0 -0 -0 -0 -0 -0 -0 -0 -0 -0 -0 0 -0 -0
0 0 0 -0 -0 -0 -0 -0 -0 -0 -0 -0 -0 -0 -0 -0 -0 0 -0 0 0 0 0 0 0 -0 -0 0 -0 -0 -0 -0 -0 -0 -0 -0 -0 -0 0 0 0 0 0
0 0 0 0 -0 -0 -0 -0 -0 -0 -0 -0 -0 -0 -0 -0 -0 0 0 0 0 -0 -0 -0 0 0 -0 -0 -0 -0 -0 -0 -0 0 -0 -0 0 0 -0 -0 -0 -0 0
0 0 0 0 0 -0 -0 -0 -0 -0 -0 -0 -0 -0 -0 -0 0 0 0 0 -0 -0 -0 -0 -0 0 -0 0 -0 -0 0 -0 -0 -0 -0 -0 -0 -0 -0 -0 0 0 0
Wind_Speed_500mb
51 45 47 61 69 60 69 60 43 30 22 17 15 13 16 20 19 20 24 20 28 25 19 17 19 20 21 16 16 30 27 29 35 28 28 24 20 23 25 26 26 31 26
43 39 43 49 57 69 68 51 35 26 20 16 12 11 17 19 19 21 19 25 20 10 9 15 15 15 16 17 27 28 28 29 32 31 28 17 19 25 26 24 26 30 26
43 38 34 43 60 72 62 42 30 23 18 14 9 13 20 22 16 11 13 13 6 3 7 10 11 13 17 19 27 27 24 31 35 30 18 12 10 20 21 25 23 26 30
40 29 36 48 68 64 48 34 26 18 17 11 6 14 20 12 7 10 8 8 3 6 9 8 6 12 17 21 27 25 24 27 31 30 32 17 21 18 14 20 21 19 27
23 29 39 59 66 55 41 29 23 17 15 7 6 14 10 9 12 11 10 8 5 8 10 11 10 12 15 22 25 25 25 27 30 28 33 19 15 24 34 27 27 19 23
23 33 46 68 62 48 36 28 19 16 13 6 6 7 7 10 15 13 10 9 6 12 13 11 12 11 15 24 27 25 19 18 25 24 35 14 25 32 36 33 33 31 29
38 48 72 73 61 49 37 27 16 14 13 7 5 4 7 11 14 15 12 6 2 7 12 13 13 11 16 24 29 25 17 16 19 18 20 15 18 30 30 38 42 38 35
44 57 76 71 58 46 37 24 16 16 16 6 2 2 9 12 15 15 10 6 6 6 10 17 15 16 19 23 28 26 21 20 19 15 8 8 14 32 19 24 34 41 30
51 64 73 64 54 44 35 23 22 20 17 5 2 3 8 12 14 11 8 8 8 5 12 16 18 19 23 24 24 23 25 23 18 11 5 5 11 24 17 21 37 38 33
50 61 71 62 50 38 31 24 22 18 15 7 4 4 10 12 11 8 10 9 8 9 13 20 20 21 22 25 26 26 26 21 19 14 10 6 18 18 24 15 24 35 24
56 64 71 58 45 37 34 26 26 22 16 11 6 5 9 13 12 9 12 13 10 12 14 20 22 22 22 24 24 25 23 22 20 18 13 15 13 23 27 13 22 20 29
56 66 68 58 49 42 37 29 27 25 17 12 10 7 9 13 10 10 11 12 13 16 16 19 20 21 22 22 21 20 20 22 23 18 18 18 19 27 22 16 19 21 22
55 63 67 60 51 46 42 32 31 27 21 14 13 10 12 15 17 18 14 13 14 16 17 18 20 22 23 22 18 15 19 21 17 14 15 23 21 23 24 19 19 20 21
58 64 67 62 53 48 46 38 33 30 24 18 15 14 13 15 20 21 21 15 14 16 17 19 21 22 22 21 18 19 21 17 15 14 15 18 19 24 25 24 20 18 26
58 67 69 66 58 54 50 43 33 34 30 21 18 18 15 16 15 18 21 23 17 17 18 20 25 25 20 21 19 22 25 21 15 18 19 18 18 20 20 19 25 28 27
65 67 69 67 64 58 54 47 37 38 35 25 21 20 19 18 15 16 17 16 19 17 21 20 18 23 22 18 21 29 24 17 17 26 30 28 24 27 30 24 22 38 41
67 69 75 71 67 60 55 53 42 40 39 32 26 21 25 23 18 17 17 15 15 18 19 11 14 22 22 22 23 28 18 15 24 36 41 42 37 36 38 37 55 42 37
69 70 71 70 66 60 56 51 46 42 41 40 32 24 30 27 21 19 18 15 16 20 18 16 15 18 35 26 32 31 23 21 30 26 38 45 49 43 44 50 44 35 27
71 68 65 64 65 62 58 56 52 45 45 45 39 31 34 31 26 23 19 16 15 21 19 20 22 20 39 32 33 37 34 33 36 44 42 42 43 46 35 42 27 33 41
71 69 66 66 64 64 62 61 60 55 48 48 44 36 31 34 30 26 22 20 17 19 22 23 22 27 30 37 34 43 38 36 42 42 34 35 41 36 29 33 34 33 35
71 70 66 67 64 65 66 66 64 62 48 43 45 41 33 36 33 29 26 22 19 20 21 22 24 23 25 30 29 41 43 35 35 32 42 33 26 27 31 34 29 29 31
70 70 69 69 67 66 69 70 68 55 52 45 48 44 38 38 39 34 30 26 21 18 22 22 23 24 24 23 24 32 36 39 42 48 39 30 27 28 28 29 27 23 18
78 76 73 69 68 70 72 72 65 59 57 52 51 45 41 36 42 41 37 35 29 21 24 26 25 26 26 29 29 32 38 39 32 35 32 28 27 26 27 28 25 22 20
82 83 75 76 70 71 75 70 65 60 60 58 56 51 49 42 44 43 41 40 36 31 26 29 30 29 31 33 34 37 42 40 35 35 37 35 31 30 28 27 27 25 22
81 84 81 79 76 71 73 74 70 66 63 62 60 59 56 49 42 44 42 43 38 32 30 31 30 34 36 34 33 34 38 38 37 37 40 40 39 36 34 32 31 29 27
78 81 83 81 78 70 68 72 74 70 64 65 66 65 62 58 52 44 41 38 36 33 29 23 30 28 23 27 32 33 34 35 37 40 43 44 42 40 37 37 37 37 34
Wind_Direction_500mb
292 272 265 253 241 221 202 194 198 207 214 223 236 267 297 302 297 298 288 297 308 296 254 224 223 235 243 254 215 181 190 195 195 199 195 199 214 197 202 208 212 207 207
289 266 246 239 224 203 190 187 194 205 207 212 244 289 310 315 306 302 288 309 306 285 203 204 222 231 230 215 186 186 187 188 185 190 184 182 190 198 198 209 216 206 198
274 253 228 209 198 185 178 182 194 201 200 215 256 313 321 320 314 301 312 321 312 159 179 208 234 219 206 195 185 183 186 178 179 188 181 153 182 185 207 212 204 205 205
271 241 209 192 182 176 174 180 190 190 194 213 269 322 330 345 347 328 332 340 293 225 228 200 204 193 189 186 187 182 182 185 188 189 202 192 184 167 161 197 203 218 206
255 208 190 177 171 171 173 178 181 184 190 205 305 338 8 29 359 334 325 310 283 234 210 202 192 175 183 184 182 184 191 201 207 212 201 205 228 197 165 159 164 190 217
198 182 171 168 167 170 174 176 174 180 181 187 339 8 37 17 3 344 332 312 272 216 207 209 184 184 181 181 181 178 193 208 214 220 202 201 194 192 170 164 176 176 162
183 169 167 170 170 173 175 169 172 175 172 170 2 29 16 7 358 347 337 2 163 185 193 190 176 177 177 180 184 185 189 181 183 190 216 230 204 169 184 174 158 141 135
185 172 175 172 173 175 173 167 173 163 171 150 41 36 2 356 358 0 10 63 106 170 178 174 163 164 164 169 176 184 192 181 183 203 196 193 179 192 211 206 181 144 138
181 179 178 176 175 176 172 169 165 160 165 156 132 350 9 11 11 23 51 93 81 114 156 158 156 154 156 156 164 176 180 182 184 179 163 167 175 176 207 234 182 160 130
183 182 180 178 177 175 168 167 164 151 161 161 128 61 32 21 18 52 69 109 84 116 144 163 159 156 151 156 164 167 171 178 175 173 173 134 162 200 196 170 202 206 193
183 182 181 179 176 173 174 174 172 171 170 167 150 92 58 41 33 93 84 96 103 115 126 157 169 170 158 156 165 171 169 178 182 171 163 154 177 176 186 179 194 194 189
184 182 181 178 179 179 180 184 179 184 175 173 170 123 85 46 55 107 104 95 97 114 126 130 154 167 166 166 168 176 173 172 168 167 160 153 174 188 204 201 191 196 186
183 185 183 182 184 185 188 188 188 183 182 179 175 149 115 76 80 101 103 97 99 110 122 132 140 156 161 167 170 168 158 149 158 170 174 167 193 178 183 183 179 181 178
186 186 185 186 188 192 194 193 188 183 187 177 168 163 141 117 90 94 99 87 93 117 120 121 131 139 150 155 151 148 154 160 147 146 148 167 175 169 171 166 165 176 171
191 190 189 190 192 196 197 196 188 184 190 179 171 166 160 149 123 106 100 80 93 112 120 121 125 131 138 148 149 150 146 151 166 179 165 156 158 155 155 171 177 177 170
198 194 195 194 196 197 198 196 190 186 192 186 174 174 168 163 148 121 109 96 94 128 118 123 134 139 145 145 146 142 134 129 119 134 139 139 143 147 146 143 180 147 135
201 199 199 198 198 197 198 197 190 186 191 194 184 179 171 166 157 134 118 110 95 119 133 113 138 170 157 159 152 163 146 113 121 135 144 144 147 158 164 134 129 132 129
207 205 201 202 199 198 199 196 194 191 189 196 192 181 175 172 165 148 129 106 98 114 132 101 107 146 167 147 159 150 142 129 129 136 139 137 131 126 127 135 126 124 126
208 209 202 200 198 199 198 196 197 197 194 197 196 187 184 181 174 165 144 120 110 108 108 107 84 116 151 155 161 156 147 139 132 135 131 130 136 130 133 129 128 129 130
211 209 203 200 198 199 199 196 199 201 199 198 197 194 190 191 183 169 160 140 124 121 108 107 117 104 133 159 153 161 157 155 144 151 144 133 127 132 134 135 134 137 137
215 213 207 200 199 200 199 200 202 204 197 195 198 197 197 194 190 178 170 161 145 145 133 121 117 128 126 132 148 185 194 184 165 166 155 146 138 135 129 137 135 141 133
215 214 208 205 201 201 201 204 207 203 198 197 200 199 198 197 195 192 183 182 172 160 162 151 138 129 132 144 143 139 159 174 171 165 158 155 152 151 150 147 149 154 154
216 216 207 209 203 204 205 207 208 204 200 199 201 198 197 200 201 200 198 195 192 187 178 173 165 151 143 141 145 150 155 163 165 180 184 177 170 171 174 175 178 180 184
213 214 207 209 207 206 208 211 209 203 201 201 201 199 197 198 202 205 206 205 202 198 195 185 181 175 168 165 158 156 165 173 178 182 184 185 186 185 186 192 189 186 188
210 214 211 207 210 208 207 208 209 206 203 203 202 201 199 199 199 205 210 211 213 211 206 201 194 192 189 182 180 179 176 179 185 189 192 195 196 198 200 200 199 196 198
207 211 213 211 208 211 209 208 209 207 205 204 204 203 202 201 202 200 203 212 218 221 221 220 218 210 201 198 199 195 196 201 201 201 205 208 211 213 213 211 208 210 213
Wind_Speed_850mb
51 45 47 61 69 60 69 60 43 30 22 17 15 13 16 20 19 20 24 20 28 25 19 17 19 20 21 16 16 30 27 29 35 28 28 24 20 23 25 26 26 31 26
43 39 43 49 57 69 68 51 35 26 20 16 12 11 17 19 19 21 19 25 20 10 9 15 15 15 16 17 27 28 28 29 32 31 28 17 19 25 26 24 26 30 26
43 38 34 43 60 72 62 42 30 23 18 14 9 13 20 22 16 11 13 13 6 3 7 10 11 13 17 19 27 27 24 31 35 30 18 12 10 20 21 25 23 26 30
40 29 36 48 68 64 48 34 26 18 17 11 6 14 20 12 7 10 8 8 3 6 9 8 6 12 17 21 27 25 24 27 31 30 32 17 21 18 14 20 21 19 27
23 29 39 59 66 55 41 29 23 17 15 7 6 14 10 9 12 11 10 8 5 8 10 11 10 12 15 22 25 25 25 27 30 28 33 19 15 24 34 27 27 19 23
23 33 46 68 62 48 36 28 19 16 13 6 6 7 7 10 15 13 10 9 6 12 13 11 12 11 15 24 27 25 19 18 25 24 35 14 25 32 36 33 33 31 29
38 48 72 73 61 49 37 27 16 14 13 7 5 4 7 11 14 15 12 6 2 7 12 13 13 11 16 24 29 25 17 16 19 18 20 15 18 30 30 38 42 38 35
44 57 76 71 58 46 37 24 16 16 16 6 2 2 9 12 15 15 10 6 6 6 10 17 15 16 19 23 28 26 21 20 19 15 8 8 14 32 19 24 34 41 30
51 64 73 64 54 44 35 23 22 20 17 5 2 3 8 12 14 11 8 8 8 5 12 16 18 19 23 24 24 23 25 23 18 11 5 5 11 24 17 21 37 38 33
50 61 71 62 50 38 31 24 22 18 15 7 4 4 10 12 11 8 10 9 8 9 13 20 20 21 22 25 26 26 26 21 19 14 10 6 18 18 24 15 24 35 24
56 64 71 58 45 37 34 26 26 22 16 11 6 5 9 13 12 9 12 13 10 12 14 20 22 22 22 24 24 25 23 22 20 18 13 15 13 23 27 13 22 20 29
56 66 68 58 49 42 37 29 27 25 17 12 10 7 9 13 10 10 11 12 13 16 16 19 20 21 22 22 21 20 20 22 23 18 18 18 19 27 22 16 19 21 22
55 63 67 60 51 46 42 32 31 27 21 14 13 10 12 15 17 18 14 13 14 16 17 18 20 22 23 22 18 15 19 21 17 14 15 23 21 23 24 19 19 20 21
58 64 67 62 53 48 46 38 33 30 24 18 15 14 13 15 20 21 21 15 14 16 17 19 21 22 22 21 18 19 21 17 15 14 15 18 19 24 25 24 20 18 26
58 67 69 66 58 54 50 43 33 34 30 21 18 18 15 16 15 18 21 23 17 17 18 20 25 25 20 21 19 22 25 21 15 18 19 18 18 20 20 19 25 28 27
65 67 69 67 64 58 54 47 37 38 35 25 21 20 19 18 15 16 17 16 19 17 21 20 18 23 22 18 21 29 24 17 17 26 30 28 24 27 30 24 22 38 41
67 69 75 71 67 60 55 53 42 40 39 32 26 21 25 23 18 17 17 15 15 18 19 11 14 22 22 22 23 28 18 15 24 36 41 42 37 36 38 37 55 42 37
69 70 71 70 66 60 56 51 46 42 41 40 32 24 30 27 21 19 18 15 16 20 18 16 15 18 35 26 32 31 23 21 30 26 38 45 49 43 44 50 44 35 27
71 68 65 64 65 62 58 56 52 45 45 45 39 31 34 31 26 23 19 16 15 21 19 20 22 20 39 32 33 37 34 33 36 44 42 42 43 46 35 42 27 33 41
71 69 66 66 64 64 62 61 60 55 48 48 44 36 31 34 30 26 22 20 17 19 22 23 22 27 30 37 34 43 38 36 42 42 34 35 41 36 29 33 34 33 35
71 70 66 67 64 65 66 66 64 62 48 43 45 41 33 36 33 29 26 22 19 20 21 22 24 23 25 30 29 41 43 35 35 32 42 33 26 27 31 34 29 29 31
70 70 69 69 67 66 69 70 68 55 52 45 48 44 38 38 39 34 30 26 21 18 22 22 23 24 24 23 24 32 36 39 42 48 39 30 27 28 28 29 27 23 18
78 76 73 69 68 70 72 72 65 59 57 52 51 45 41 36 42 41 37 35 29 21 24 26 25 26 26 29 29 32 38 39 32 35 32 28 27 26 27 28 25 22 20
82 83 75 76 70 71 75 70 65 60 60 58 56 51 49 42 44 43 41 40 36 31 26 29 30 29 31 33 34 37 42 40 35 35 37 35 31 30 28 27 27 25 22
81 84 81 79 76 71 73 74 70 66 63 62 60 59 56 49 42 44 42 43 38 32 30 31 30 34 36 34 33 34 38 38 37 37 40 40 39 36 34 32 31 29 27
78 81 83 81 78 70 68 72 74 70 64 65 66 65 62 58 52 44 41 38 36 33 29 23 30 28 23 27 32 33 34 35 37 40 43 44 42 40 37 37 37 37 34
Wind_Direction_850mb
292 272 265 253 241 221 202 194 198 207 214 223 236 267 297 302 297 298 288 297 308 296 254 224 223 235 243 254 215 181 190 195 195 199 195 199 214 197 202 208 212 207 207
289 266 246 239 224 203 190 187 194 205 207 212 244 289 310 315 306 302 288 309 306 285 203 204 222 231 230 215 186 186 187 188 185 190 184 182 190 198 198 209 216 206 198
274 253 228 209 198 185 178 182 194 201 200 215 256 313 321 320 314 301 312 321 312 159 179 208 234 219 206 195 185 183 186 178 179 188 181 153 182 185 207 212 204 205 205
271 241 209 192 182 176 174 180 190 190 194 213 269 322 330 345 347 328 332 340 293 225 228 200 204 193 189 186 187 182 182 185 188 189 202 192 184 167 161 197 203 218 206
255 208 190 177 171 171 173 178 181 184 190 205 305 338 8 29 359 334 325 310 283 234 210 202 192 175 183 184 182 184 191 201 207 212 201 205 228 197 165 159 164 190 217
198 182 171 168 167 170 174 176 174 180 181 187 339 8 37 17 3 344 332 312 272 216 207 209 184 184 181 181 181 178 193 208 214 220 202 201 194 192 170 164 176 176 162
183 169 167 170 170 173 175 169 172 175 172 170 2 29 16 7 358 347 337 2 163 185 193 190 176 177 177 180 184 185 189 181 183 190 216 230 204 169 184 174 158 141 135
185 172 175 172 173 175 173 167 173 163 171 150 41 36 2 356 358 0 10 63 106 170 178 174 163 164 164 169 176 184 192 181 183 203 196 193 179 192 211 206 181 144 138
181 179 178 176 175 176 172 169 165 160 165 156 132 350 9 11 11 23 51 93 81 114 156 158 156 154 156 156 164 176 180 182 184 179 163 167 175 176 207 234 182 160 130
183 182 180 178 177 175 168 167 164 151 161 161 128 61 32 21 18 52 69 109 84 116 144 163 159 156 151 156 164 167 171 178 175 173 173 134 162 200 196 170 202 206 193
183 182 181 179 176 173 174 174 172 171 170 167 150 92 58 41 33 93 84 96 103 115 126 157 169 170 158 156 165 171 169 178 182 171 163 154 177 176 186 179 194 194 189
184 182 181 178 179 179 180 184 179 184 175 173 170 123 85 46 55 107 104 95 97 114 126 130 154 167 166 166 168 176 173 172 168 167 160 153 174 188 204 201 191 196 186
183 185 183 182 184 185 188 188 188 183 182 179 175 149 115 76 80 101 103 97 99 110 122 132 140 156 161 167 170 168 158 149 158 170 174 167 193 178 183 183 179 181 178
186 186 185 186 188 192 194 193 188 183 187 177 168 163 141 117 90 94 99 87 93 117 120 121 131 139 150 155 151 148 154 160 147 146 148 167 175 169 171 166 165 176 171
191 190 189 190 192 196 197 196 188 184 190 179 171 166 160 149 123 106 100 80 93 112 120 121 125 131 138 148 149 150 146 151 166 179 165 156 158 155 155 171 177 177 170
198 194 195 194 196 197 198 196 190 186 192 186 174 174 168 163 148 121 109 96 94 128 118 123 134 139 145 145 146 142 134 129 119 134 139 139 143 147 146 143 180 147 135
201 199 199 198 198 197 198 197 190 186 191 194 184 179 171 166 157 134 118 110 95 119 133 113 138 170 157 159 152 163 146 113 121 135 144 144 147 158 164 134 129 132 129
207 205 201 202 199 198 199 196 194 191 189 196 192 181 175 172 165 148 129 106 98 114 132 101 107 146 167 147 159 150 142 129 129 136 139 137 131 126 127 135 126 124 126
208 209 202 200 198 199 198 196 197 197 194 197 196 187 184 181 174 165 144 120 110 108 108 107 84 116 151 155 161 156 147 139 132 135 131 130 136 130 133 129 128 129 130
211 209 203 200 198 199 199 196 199 201 199 198 197 194 190 191 183 169 160 140 124 121 108 107 117 104 133 159 153 161 157 155 144 151 144 133 127 132 134 135 134 137 137
215 213 207 200 199 200 199 200 202 204 197 195 198 197 197 194 190 178 170 161 145 145 133 121 117 128 126 132 148 185 194 184 165 166 155 146 138 135 129 137 135 141 133
215 214 208 205 201 201 201 204 207 203 198 197 200 199 198 197 195 192 183 182 172 160 162 151 138 129 132 144 143 139 159 174 171 165 158 155 152 151 150 147 149 154 154
216 216 207 209 203 204 205 207 208 204 200 199 201 198 197 200 201 200 198 195 192 187 178 173 165 151 143 141 145 150 155 163 165 180 184 177 170 171 174 175 178 180 184
213 214 207 209 207 206 208 211 209 203 201 201 201 199 197 198 202 205 206 205 202 198 195 185 181 175 168 165 158 156 165 173 178 182 184 185 186 185 186 192 189 186 188
210 214 211 207 210 208 207 208 209 206 203 203 202 201 199 199 199 205 210 211 213 211 206 201 194 192 189 182 180 179 176 179 185 189 192 195 196 198 200 200 199 196 198
207 211 213 211 208 211 209 208 209 207 205 204 204 203 202 201 202 200 203 212 218 221 221 220 218 210 201 198 199 195 196 201 201 201 205 208 211 213 213 211 208 210 213